Location: Quebec
(46.8000°N, 71.2500°W)
Time: 06:15:48
(UTC-04:00)

N. Korean satellite - Pass Details

Date: 13 October 2017
Orbit: 459 x 517 km, 97.2° (Epoch: 21 October)

Event Time Altitude Azimuth Distance (km) Brightness Sun altitude
Rises 19:48:09 0° 208° (SSW) 2,548 10.5 -19.1°
Reaches altitude 10° 19:50:59 10° 234° (SW) 1,661 9.9 -19.6°
Maximum altitude 19:53:01 15° 269° (W) 1,399 9.9 -19.9°
Drops below altitude 10° 19:55:03 10° 304° (WNW) 1,651 10.2 -20.2°
Sets 19:57:52 0° 329° (NNW) 2,524 10.8 -20.7°
